Weather History for Talkeetna, AK

Change the Weather History Date:

Tuesday, January 15, 2013

  Actual Average Record
Temperature  
Mean Temperature 26 °F -  
Max Temperature 37 °F 19 °F 39 °F (2001)
Min Temperature 16 °F 2 °F -39 °F (1960)
Degree Days  
Heating Degree Days 38    
Moisture  
Dew Point 17 °F    
Average Humidity 76    
Maximum Humidity 96    
Minimum Humidity 49    
Precipitation  
Precipitation 0.00 in - - ()
Sea Level Pressure  
Sea Level Pressure 30.14 in    
Wind  
Wind Speed 9 mph (South)    
Max Wind Speed 17 mph    
Max Gust Speed 25 mph    
Visibility 10 miles    
Events      
Averages and records for this station are not official NWS values.
T = Trace of Precipitation, MM = Missing Value Source: NWS Daily Summary

Daily Weather History Graph

Daily Weather History Graph

Search for Another Location

Airport:

Trip Planner

Search our weather history database for the weather conditions in past years. The results will help you decide how hot, cold, wet, or windy it might be!

Date:

Astronomy

Jan. 15, 2013 Rise Set
Actual Time 10:06 AM AKST 4:13 PM AKST
Civil Twilight 9:07 AM AKST 5:13 PM AKST
Nautical Twilight 8:08 AM AKST 6:12 PM AKST
Astronomical Twilight 7:14 AM AKST 7:06 PM AKST
Moon 10:32 AM AKST (1/15) 11:09 PM AKST (1/15)
Length of Visible Light 8h 05m
Length of Day
6h 06m
Waxing Crescent, 20% of the Moon is Illuminated
Jan 15
Waxing Crescent
Jan 18
First Quarter
Jan 26
Full
Feb 3
Last Quarter
Feb 9
New

Hourly Weather History & Observations

Time (AKST) Temp. Windchill Dew Point Humidity Pressure Visibility Wind Dir Wind Speed Gust Speed Precip Events Conditions
12:53 AM 33.1 °F 22.2 °F 21.0 °F 61% 29.91 in 10.0 mi South 17.3 mph 25.3 mph N/A   Overcast
1:53 AM 32.0 °F 22.1 °F 19.0 °F 59% 29.96 in 10.0 mi South 13.8 mph 23.0 mph 0.00 in   Overcast
2:53 AM 30.9 °F 20.7 °F 19.0 °F 61% 29.99 in 10.0 mi South 13.8 mph 19.6 mph N/A   Overcast
3:53 AM 30.0 °F 19.5 °F 19.0 °F 64% 30.00 in 10.0 mi South 13.8 mph 25.3 mph N/A   Overcast
4:53 AM 28.9 °F 17.7 °F 18.0 °F 64% 30.02 in 10.0 mi South 15.0 mph 21.9 mph N/A   Overcast
5:53 AM 28.0 °F 18.1 °F 19.0 °F 69% 30.04 in 10.0 mi South 11.5 mph 20.7 mph N/A   Mostly Cloudy
6:53 AM 27.0 °F 16.7 °F 17.1 °F 66% 30.08 in 10.0 mi South 11.5 mph - N/A   Clear
7:53 AM 26.1 °F 15.0 °F 17.1 °F 69% 30.09 in 10.0 mi South 12.7 mph - N/A   Clear
8:53 AM 26.1 °F 15.6 °F 18.0 °F 71% 30.11 in 10.0 mi South 11.5 mph - N/A   Clear
9:53 AM 25.0 °F 14.2 °F 16.0 °F 69% 30.14 in 10.0 mi South 11.5 mph - N/A   Clear
10:53 AM 24.1 °F - 17.1 °F 75% 30.17 in 10.0 mi Calm Calm - N/A   Clear
11:53 AM 21.0 °F - 16.0 °F 81% 30.19 in 10.0 mi Calm Calm - N/A   Clear
12:53 PM 21.9 °F - 17.1 °F 82% 30.20 in 10.0 mi Calm Calm - N/A   Clear
1:53 PM 21.9 °F - 18.0 °F 85% 30.20 in 10.0 mi Calm Calm - N/A   Clear
2:53 PM 19.9 °F 14.9 °F 16.0 °F 85% 30.21 in 10.0 mi ENE 3.5 mph - N/A   Partly Cloudy
3:53 PM 19.9 °F - 17.1 °F 89% 30.22 in 10.0 mi Calm Calm - N/A   Clear
4:53 PM 18.0 °F - 15.1 °F 88% 30.22 in 10.0 mi Calm Calm - N/A   Clear
5:53 PM 17.1 °F - 15.1 °F 92% 30.23 in 10.0 mi Calm Calm - N/A   Clear
6:53 PM 16.0 °F - 15.1 °F 96% 30.23 in 10.0 mi Calm Calm - N/A   Clear
7:53 PM 17.1 °F - 14.0 °F 88% 30.23 in 10.0 mi Calm Calm - N/A   Clear
8:53 PM 18.0 °F 12.7 °F 14.0 °F 84% 30.25 in 10.0 mi NNW 3.5 mph - N/A   Clear
9:53 PM 17.1 °F - 14.0 °F 88% 30.24 in 10.0 mi Calm Calm - N/A   Overcast
10:53 PM 18.0 °F - 12.9 °F 81% 30.23 in 10.0 mi Calm Calm - N/A   Partly Cloudy
11:53 PM 19.0 °F 12.3 °F 12.9 °F 77% 30.22 in 10.0 mi NNE 4.6 mph - N/A   Overcast